Location: Wiesbaden
(50.0830°N, 8.2500°E)
Time: 05:35:50
(UTC+01:00)

ISS - Pass Details

Date: 22 February 2020
Orbit: 415 x 423 km, 51.6° (Epoch: 27 February)

Event Time Altitude Azimuth Distance (km) Brightness Sun altitude
Rises 06:41:09 0° 214° (SSW) 2,356 -0.2 -7.9°
Reaches altitude 10° 06:43:29 10° 200° (SSW) 1,498 -1.1 -7.5°
Maximum altitude 06:46:15 24° 144° (SE) 913 -1.5 -7.0°
Drops below altitude 10° 06:49:04 10° 88° (E) 1,508 0.8 -6.6°
Sets 06:51:24 0° 74° (ENE) 2,378 1.5 -6.2°
